CZ-3C DEB, 48550

Orbit data source: Space-Track

CZ-3C DEB, 48550 is space debris in HEO originally from a launch on Fri, 24 Feb 2012 UTC launched from the Xichang Space Center, China (XSC). Debris objects in space refer to the collection of defunct objects orbiting the Earth. Examples of debris include non-operational satellites, rocket bodies, and fragments generated from explosions, collisions, or faulty payload assembly.

Loading next visibility...
Identifier
48550, 2012-008AV
Orbit
HEO
Country
Flag of CNCN / PRC
Related business
Manufacturer
CALT
Mission
Spacecraft
Bus & Motor
Unknown
Mass
Unknown
Launch date (UTC)
2012-02-24 (14 years ago)
Launch vehicle
Unknown
Launch site
Xichang Space Center, China (XSC)
Object type
Payload
Rocket body
Debris
Shape & HBR
Unknown shape, 0.2 m
Radar Cross Section
Medium (>0.1 m² and <1 m²)

Expand to show TLE details & history
Last TLE update: 23 hours ago

TLE from 23 hours ago
0 CZ-3C DEB
1 48550U 12008AV  26065.21665184  .00000010  00000-0  00000-0 0  9996
2 48550  19.9239 210.9341 6980900 227.8987  47.1459  2.24671658 87503
Epoch: 2026-03-06T05:11Z
TLE epoch observation values (Epoch: 2026-03-06T05:11:58.718Z)
Latitude
0.00001°
Longitude
-31.09018°
Altitude
17,366.508 km
Speed
4.17 km/s
True Right ascension
14h 03m 26s
True Declination
0° 00' 00"
Sunlit
Object was in daylight at epoch
Visualization orbit readout
Latitude
Unknown
Longitude
Unknown
Altitude
Unknown
Speed
Unknown
Apparent Right ascension
Unknown
Apparent Declination
Unknown
Sunlit
N/A
Visualization observer readout
Local Sidereal Time
07:42:14
Azimuth
Unknown
Elevation
Unknown
Doppler factor
Unknown
Orbital elements
Apogee altitude
35,443.554 km
Perigee altitude
1,057.503 km
Semi-major axis
24,628.665 km
Eccentricity
0.69809
Inclination
19.9239°
RAAN
210.9341°
Arg. of periapsis
227.8987°
True anomaly
132.15404°
Mean anomaly
47.1459°
Eccentric anomaly
87.09201°
Mean motion
0.56154 °/min
Orbital period
641.09 mins
BSTAR
0
Loading maneuver chart data...
Computing Atmospheric mass density...
Loading historical data...
Loading historical data...
Loading historical data...
Loading historical data...
Loading historical data...
Loading historical data...
Loading historical data...

Documentation

Showing up to 5 results
|